| time (UTC) | temp C | wind direction | speed KPH | gust KPH | rain 1hr cm | rain 24hr cm | rain mn cm | humidity % | barometer mb |
| 20260509214535 | 29 | 134 | 4.8 | 8.0 | 0.00 | 0.00 | 0.00 | 52 | 1009.6 |
| 20260509213038 | 30 | 0 | 1.6 | 4.8 | 0.00 | 0.00 | 0.00 | 45 | 1009.7 |
| 20260509211534 | 31 | 5 | 1.6 | 4.8 | 0.00 | 0.00 | 0.00 | 42 | 1009.9 |
| 20260509210042 | 30 | 0 | 1.6 | 4.8 | 0.00 | 0.00 | 0.00 | 44 | 1010.1 |
| 20260509204539 | 30 | 129 | 0.0 | 3.2 | 0.00 | 0.00 | 0.00 | 43 | 1010.3 |
| 20260509203033 | 29 | 108 | 0.0 | 4.8 | 0.00 | 0.00 | 0.00 | 45 | 1010.4 |
| 20260509201538 | 28 | 143 | 3.2 | 6.4 | 0.00 | 0.00 | 0.00 | 45 | 1010.7 |
| 20260509200032 | 28 | 141 | 1.6 | 8.0 | 0.00 | 0.00 | 0.00 | 45 | 1010.7 |
| 20260509194538 | 28 | 131 | 3.2 | 4.8 | 0.00 | 0.00 | 0.00 | 49 | 1010.7 |
| 20260509193031 | 28 | 128 | 3.2 | 4.8 | 0.00 | 0.00 | 0.00 | 49 | 1010.8 |
| 20260509191530 | 28 | 16 | 1.6 | 6.4 | 0.00 | 0.00 | 0.00 | 49 | 1010.9 |
| 20260509190034 | 28 | 153 | 0.0 | 4.8 | 0.00 | 0.00 | 0.00 | 55 | 1010.9 |
| 20260509184543 | 27 | 0 | 1.6 | 4.8 | 0.00 | 0.00 | 0.00 | 59 | 1011.0 |
| 20260509183033 | 28 | 146 | 3.2 | 4.8 | 0.00 | 0.00 | 0.00 | 55 | 1011.0 |
| 20260509181532 | 28 | 0 | 1.6 | 6.4 | 0.00 | 0.00 | 0.00 | 55 | 1011.2 |
| 20260509180032 | 27 | 108 | 0.0 | 6.4 | 0.00 | 0.00 | 0.00 | 60 | 1011.2 |
| 20260509174536 | 26 | 124 | 3.2 | 6.4 | 0.00 | 0.00 | 0.00 | 63 | 1011.3 |
| 20260509173035 | 25 | 130 | 1.6 | 6.4 | 0.00 | 0.00 | 0.00 | 66 | 1011.2 |
| 20260509171535 | 25 | 1 | 0.0 | 4.8 | 0.00 | 0.00 | 0.00 | 66 | 1011.3 |
| 20260509170030 | 25 | 152 | 1.6 | 4.8 | 0.00 | 0.00 | 0.00 | 70 | 1011.3 |
| 20260509164530 | 24 | 0 | 0.0 | 4.8 | 0.00 | 0.00 | 0.00 | 68 | 1011.3 |
| 20260509163034 | 23 | 146 | 1.6 | 8.0 | 0.00 | 0.00 | 0.00 | 74 | 1011.3 |
| 20260509161533 | 23 | 19 | 1.6 | 4.8 | 0.00 | 0.00 | 0.00 | 70 | 1011.2 |
| 20260509160040 | 23 | 0 | 0.0 | 4.8 | 0.00 | 0.00 | 0.00 | 72 | 1011.1 |
| 20260509154535 | 22 | 278 | 1.6 | 6.4 | 0.00 | 0.00 | 0.00 | 73 | 1011.2 |
| 20260509153043 | 22 | 287 | 0.0 | 4.8 | 0.00 | 0.00 | 0.00 | 76 | 1011.0 |
| 20260509151533 | 21 | 217 | 0.0 | 3.2 | 0.00 | 0.00 | 0.00 | 76 | 1010.9 |
| 20260509150038 | 21 | 0 | 0.0 | 1.6 | 0.00 | 0.00 | 0.00 | 79 | 1011.1 |
| 20260509144549 | 21 | 231 | 1.6 | 4.8 | 0.00 | 0.00 | 0.00 | 80 | 1011.2 |
| 20260509143033 | 20 | 0 | 0.0 | 3.2 | 0.00 | 0.00 | 0.00 | 83 | 1011.3 |
| 20260509141539 | 20 | 229 | 0.0 | 4.8 | 0.00 | 0.00 | 0.00 | 86 | 1011.3 |
| 20260509140034 | 19 | 198 | 0.0 | 6.4 | 0.00 | 0.00 | 0.00 | 87 | 1011.2 |
| 20260509134553 | 18 | 149 | 1.6 | 4.8 | 0.00 | 0.00 | 0.00 | 90 | 1011.3 |
| 20260509133043 | 17 | 140 | 0.0 | 3.2 | 0.00 | 0.00 | 0.00 | 93 | 1011.3 |
| 20260509131537 | 16 | 142 | 1.6 | 1.6 | 0.00 | 0.00 | 0.00 | 95 | 1011.2 |
| 20260509130044 | 16 | 152 | 1.6 | 3.2 | 0.00 | 0.00 | 0.00 | 96 | 1011.1 |
| 20260509124536 | 15 | 0 | 0.0 | 1.6 | 0.00 | 0.00 | 0.00 | 96 | 1011.0 |
| 20260509123032 | 14 | 0 | 0.0 | 0.0 | 0.00 | 0.00 | 0.00 | 95 | 1010.8 |
| 20260509121543 | 13 | 0 | 0.0 | 0.0 | 0.00 | 0.00 | 0.00 | 95 | 1010.6 |
| 20260509120035 | 13 | 0 | 0.0 | 0.0 | 0.00 | 0.00 | 0.00 | 95 | 1010.4 |
| 20260509114538 | 13 | 0 | 0.0 | 0.0 | 0.00 | 0.00 | 0.00 | 95 | 1010.4 |
| 20260509113039 | 13 | 0 | 0.0 | 0.0 | 0.00 | 0.00 | 0.00 | 94 | 1010.1 |
| 20260509111531 | 13 | 0 | 0.0 | 0.0 | 0.00 | 0.00 | 0.00 | 94 | 1010.0 |
| 20260509110034 | 13 | 0 | 0.0 | 0.0 | 0.00 | 0.00 | 0.00 | 94 | 1009.9 |
| 20260509104543 | 13 | 0 | 0.0 | 1.6 | 0.00 | 0.00 | 0.00 | 94 | 1009.8 |
| 20260509103038 | 14 | 0 | 0.0 | 0.0 | 0.00 | 0.00 | 0.00 | 93 | 1009.8 |
| 20260509101556 | 14 | 0 | 0.0 | 0.0 | 0.00 | 0.00 | 0.00 | 93 | 1009.7 |
| 20260509100040 | 14 | 0 | 0.0 | 0.0 | 0.00 | 0.00 | 0.00 | 92 | 1009.8 |
| 20260509094539 | 15 | 0 | 0.0 | 1.6 | 0.00 | 0.00 | 0.00 | 92 | 1009.8 |
| 20260509093037 | 15 | 0 | 0.0 | 0.0 | 0.00 | 0.00 | 0.00 | 91 | 1009.7 |
| 20260509091541 | 15 | 0 | 0.0 | 0.0 | 0.00 | 0.00 | 0.00 | 91 | 1009.9 |
| 20260509090039 | 15 | 0 | 0.0 | 1.6 | 0.00 | 0.00 | 0.00 | 90 | 1009.9 |
| 20260509084537 | 16 | 335 | 0.0 | 1.6 | 0.00 | 0.00 | 0.00 | 90 | 1009.5 |
| 20260509083035 | 16 | 0 | 0.0 | 0.0 | 0.00 | 0.00 | 0.00 | 89 | 1009.1 |
| 20260509081541 | 16 | 0 | 0.0 | 0.0 | 0.00 | 0.00 | 0.00 | 88 | 1009.1 |
| 20260509080035 | 17 | 0 | 0.0 | 0.0 | 0.00 | 0.00 | 0.00 | 87 | 1009.5 |
| 20260509074544 | 17 | 0 | 0.0 | 3.2 | 0.00 | 0.00 | 0.00 | 87 | 1009.5 |
| 20260509073033 | 17 | 0 | 0.0 | 3.2 | 0.00 | 0.00 | 0.00 | 86 | 1009.4 |
| 20260509071532 | 17 | 248 | 1.6 | 4.8 | 0.00 | 0.00 | 0.00 | 86 | 1009.4 |
| 20260509070039 | 17 | 0 | 0.0 | 4.8 | 0.00 | 0.00 | 0.00 | 85 | 1009.4 |
| 20260509064542 | 18 | 239 | 0.0 | 4.8 | 0.00 | 0.00 | 0.00 | 84 | 1009.3 |
| 20260509063032 | 18 | 255 | 1.6 | 6.4 | 0.00 | 0.00 | 0.00 | 83 | 1009.1 |
| 20260509061535 | 18 | 246 | 3.2 | 4.8 | 0.00 | 0.00 | 0.00 | 83 | 1008.9 |
| 20260509060038 | 18 | 157 | 1.6 | 9.7 | 0.00 | 0.00 | 0.00 | 83 | 1008.8 |
| 20260509054544 | 18 | 177 | 4.8 | 9.7 | 0.00 | 0.00 | 0.00 | 84 | 1009.1 |
| 20260509053035 | 17 | 170 | 8.0 | 11.3 | 0.00 | 0.00 | 0.00 | 86 | 1009.2 |
| 20260509051533 | 17 | 219 | 1.6 | 4.8 | 0.00 | 0.00 | 0.00 | 87 | 1010.6 |
| 20260509050037 | 16 | 132 | 1.6 | 3.2 | 0.00 | 0.00 | 0.00 | 91 | 1010.8 |
| 20260509044532 | 15 | 0 | 0.0 | 0.0 | 0.00 | 0.00 | 0.00 | 91 | 1011.4 |
| 20260509043031 | 15 | 119 | 0.0 | 1.6 | 0.00 | 0.00 | 0.00 | 92 | 1011.2 |
| 20260509041552 | 15 | 0 | 0.0 | 0.0 | 0.00 | 0.00 | 0.00 | 91 | 1011.4 |
| 20260509040033 | 15 | 0 | 0.0 | 0.0 | 0.00 | 0.00 | 0.00 | 91 | 1011.8 |
| 20260509034534 | 15 | 0 | 0.0 | 3.2 | 0.00 | 0.00 | 0.00 | 91 | 1011.4 |
| 20260509033036 | 15 | 0 | 0.0 | 1.6 | 0.00 | 0.00 | 0.00 | 89 | 1011.9 |
| 20260509031536 | 15 | 106 | 0.0 | 1.6 | 0.00 | 0.00 | 0.00 | 88 | 1011.7 |
| 20260509030035 | 16 | 121 | 0.0 | 0.0 | 0.00 | 0.00 | 0.00 | 88 | 1010.9 |
| 20260509024537 | 16 | 121 | 0.0 | 1.6 | 0.00 | 0.00 | 0.00 | 85 | 1010.4 |
| 20260509023035 | 16 | 0 | 0.0 | 0.0 | 0.00 | 0.00 | 0.00 | 83 | 1010.1 |
| 20260509021536 | 16 | 0 | 0.0 | 0.0 | 0.00 | 0.00 | 0.00 | 80 | 1009.8 |
| 20260509020045 | 17 | 0 | 0.0 | 0.0 | 0.00 | 0.00 | 0.00 | 78 | 1009.9 |
| 20260509014539 | 17 | 0 | 0.0 | 0.0 | 0.00 | 0.00 | 0.00 | 75 | 1009.9 |
| 20260509013041 | 18 | 0 | 0.0 | 0.0 | 0.00 | 0.00 | 0.00 | 73 | 1009.8 |
| 20260509011537 | 19 | 0 | 0.0 | 0.0 | 0.00 | 0.00 | 0.00 | 71 | 1009.7 |
| 20260509010040 | 20 | 0 | 0.0 | 0.0 | 0.00 | 0.00 | 0.00 | 70 | 1009.6 |
| 20260509004535 | 21 | 0 | 0.0 | 3.2 | 0.00 | 0.00 | 0.00 | 67 | 1009.7 |
| 20260509003035 | 21 | 144 | 3.2 | 3.2 | 0.00 | 0.00 | 0.00 | 63 | 1009.7 |
| 20260509001533 | 22 | 149 | 1.6 | 4.8 | 0.00 | 0.00 | 0.00 | 59 | 1010.0 |
| 20260509000034 | 23 | 169 | 4.8 | 8.0 | 0.00 | 0.00 | 0.00 | 57 | 1010.0 |
| 20260508234533 | 23 | 170 | 3.2 | 8.0 | 0.00 | 0.00 | 0.00 | 58 | 1009.9 |
| 20260508233034 | 23 | 167 | 4.8 | 8.0 | 0.00 | 0.00 | 0.00 | 57 | 1010.0 |
| 20260508231537 | 23 | 153 | 6.4 | 9.7 | 0.00 | 0.00 | 0.00 | 55 | 1010.0 |
| 20260508230041 | 24 | 169 | 4.8 | 8.0 | 0.00 | 0.00 | 0.00 | 55 | 1009.9 |
| 20260508224535 | 25 | 235 | 3.2 | 6.4 | 0.00 | 0.00 | 0.00 | 54 | 1009.8 |
| 20260508223033 | 25 | 173 | 1.6 | 9.7 | 0.00 | 0.00 | 0.00 | 54 | 1009.8 |
| 20260508221535 | 24 | 176 | 4.8 | 11.3 | 0.00 | 0.00 | 0.00 | 55 | 1009.9 |
| 20260508220033 | 25 | 142 | 4.8 | 9.7 | 0.00 | 0.00 | 0.00 | 55 | 1010.0 |